SCP
0 0 1 1 1 1 1 1 1 1 1 1 1 1 0 0 1 0 0 0 0 0 0 0 0 0 0 0 0 0 0 0 0 0 0 0 0 0 0 0 0 0 0
0 0 0 0 0 1 1 1 1 1 1 1 1 1 1 1 1 1 0 0 0 0 0 0 0 0 0 0 0 0 0 0 0 0 0 0 0 0 0 0 0 0 0
0 0 0 0 0 0 0 1 1 1 1 1 1 0 0 0 0 0 1 0 0 0 0 0 0 0 0 0 0 0 0 0 0 0 0 0 0 0 0 0 0 0 0
0 0 0 0 0 0 0 1 1 1 1 1 1 1 1 1 0 0 0 1 0 0 0 0 0 0 0 0 0 0 0 0 0 0 0 0 0 0 0 0 0 0 0
0 0 0 0 0 0 1 1 1 1 1 1 1 0 0 0 0 0 0 0 0 0 0 0 0 0 0 0 0 0 0 0 0 0 0 0 0 0 0 0 0 0 0
0 0 0 0 0 0 0 1 0 0 0 0 0 0 0 0 0 0 0 0 0 0 0 0 0 0 0 0 0 0 0 0 0 0 0 0 0 0 0 0 0 0 0
0 0 0 0 0 0 0 0 0 0 0 0 0 0 0 0 0 0 0 0 0 0 0 0 0 0 0 0 0 0 0 0 0 0 0 0 0 0 0 0 0 0 0
0 0 0 0 0 0 0 0 0 0 0 0 0 0 0 0 0 0 0 0 0 0 0 0 0 0 0 0 0 0 0 0 0 0 0 0 0 0 0 0 0 0 0
0 0 0 0 0 0 0 0 0 0 0 0 0 0 0 0 0 0 0 0 0 0 0 0 0 0 0 0 0 0 0 0 0 0 0 0 0 0 0 0 0 0 0
0 0 0 0 0 0 0 0 0 0 0 0 0 0 0 0 0 0 0 0 0 0 0 0 0 -0 0 -0 -0 0 -0 -0 0 0 0 0 0 0 0 0 0 0 0
0 0 0 0 0 0 0 0 0 0 0 0 0 0 0 0 0 0 0 0 0 0 0 0 0 0 0 0 0 0 0 0 0 0 0 0 0 0 0 0 0 0 0
0 0 0 0 0 0 0 0 0 0 0 0 0 0 0 0 0 0 0 0 0 0 0 0 0 0 0 0 0 0 0 0 0 0 0 0 0 0 0 0 0 0 0
0 0 0 0 0 0 0 0 0 0 0 0 0 0 0 0 0 0 0 0 0 0 0 0 0 0 0 0 0 0 0 0 0 0 0 0 0 0 0 0 0 0 0
0 0 0 0 0 0 0 0 0 0 0 0 0 0 0 0 0 0 0 0 0 0 0 0 0 0 0 0 0 0 0 0 0 0 0 0 0 0 0 0 0 0 0
0 0 0 0 0 0 0 0 0 0 0 0 0 0 0 0 0 0 0 0 0 0 0 0 0 0 0 0 0 0 0 0 0 0 0 0 0 0 0 0 0 0 0
0 0 0 0 0 0 0 0 0 0 0 0 0 0 0 0 0 0 0 0 0 0 0 0 0 0 0 0 0 0 0 0 0 0 0 0 0 0 0 0 0 0 0
0 0 0 0 0 0 0 0 0 0 0 0 0 0 0 0 0 0 0 0 0 0 0 0 0 0 0 0 0 0 0 0 0 0 0 0 0 0 0 0 0 0 0
0 0 0 0 0 0 0 0 0 0 0 0 0 0 0 0 0 0 0 0 0 0 0 0 0 0 0 0 0 0 0 0 0 0 0 0 0 0 0 0 0 0 0
0 0 0 0 0 0 0 0 0 0 0 0 0 0 0 0 0 0 0 0 0 0 0 0 0 0 0 0 0 0 0 0 0 0 0 0 0 0 0 0 0 0 0
0 0 0 0 0 0 0 0 0 0 0 0 0 0 0 0 0 0 0 0 0 0 0 0 0 0 0 0 0 0 0 0 0 0 0 0 0 0 0 0 0 0 0
0 0 0 0 0 0 0 0 0 0 0 0 0 0 0 0 0 0 0 0 0 0 0 0 0 0 0 0 0 0 0 0 0 0 0 0 0 0 0 0 0 0 0
0 0 0 0 0 0 0 0 0 0 0 0 0 0 0 0 0 0 0 0 0 0 0 0 0 0 0 0 0 0 0 0 0 0 0 0 0 0 0 0 0 0 0
0 0 0 0 0 0 0 0 0 0 0 0 0 0 0 0 0 0 0 0 0 0 0 0 0 0 0 0 0 0 0 0 0 0 0 0 0 0 0 0 0 0 0
0 0 0 0 0 0 0 0 0 0 0 0 0 0 0 0 0 0 0 0 0 0 0 0 0 0 0 0 0 0 0 0 0 0 0 0 0 0 0 0 0 0 0
0 0 0 0 0 0 0 0 0 0 0 0 0 0 0 0 0 0 0 0 0 0 0 0 0 0 0 0 0 0 0 0 0 0 0 0 0 0 0 0 0 0 0
0 0 0 0 0 0 0 0 0 0 0 0 0 0 0 0 0 0 0 0 0 0 0 0 0 0 0 0 0 0 0 0 0 0 0 0 0 0 0 0 0 0 0
Wind_Speed_500mb
40 53 50 44 47 47 52 58 56 56 56 60 50 60 64 61 56 43 37 32 35 43 38 39 45 43 41 41 38 37 34 31 30 28 23 23 23 24 23 23 26 27 28
56 60 54 50 44 41 42 46 51 60 60 58 53 54 56 54 46 39 37 39 38 35 38 37 42 41 40 38 37 35 33 33 30 29 21 16 17 20 20 22 24 27 27
55 61 60 57 51 47 44 40 38 42 46 56 55 51 49 43 47 52 46 45 44 41 44 42 43 41 41 36 33 33 32 30 29 28 21 10 10 7 11 17 21 26 29
48 70 62 56 51 51 53 50 44 42 42 48 57 54 56 60 60 54 52 49 54 50 50 50 46 44 43 36 26 31 34 31 33 28 30 29 28 15 12 20 25 29 36
49 74 71 61 55 49 52 51 51 48 41 44 47 47 46 44 45 47 50 52 58 64 55 45 36 42 52 39 32 33 35 38 36 35 23 27 33 31 35 43 33 36 40
22 71 71 64 52 48 50 49 49 44 43 42 43 40 41 43 37 29 31 39 46 51 42 38 46 52 46 50 40 36 37 38 37 33 25 31 37 37 37 45 48 51 46
17 59 73 64 55 49 46 49 51 49 45 44 41 38 33 24 29 27 23 26 30 31 20 37 39 35 35 38 33 30 25 26 33 27 26 32 43 56 48 61 58 52 50
34 40 63 65 58 50 46 47 50 50 47 41 37 32 26 19 21 26 19 17 20 17 9 38 49 51 36 34 31 28 26 31 36 40 47 42 50 57 59 58 57 57 54
48 46 50 59 58 50 44 42 43 47 47 47 42 30 32 33 27 21 17 14 15 17 19 26 30 42 11 12 21 37 32 34 38 44 58 53 55 63 62 50 53 54 53
65 46 57 58 52 42 42 38 42 43 42 45 43 39 34 31 34 28 29 28 26 34 32 28 20 29 25 23 36 35 39 51 57 62 70 67 64 59 51 50 51 53 62
78 63 57 50 44 37 46 53 50 46 45 48 41 37 36 38 43 42 45 44 44 39 43 48 57 55 52 55 57 56 58 63 65 67 63 62 64 64 57 58 56 55 60
68 69 66 57 53 49 55 56 44 44 45 45 37 37 35 44 47 52 59 63 65 61 67 65 61 63 63 63 61 59 56 57 58 59 63 63 62 62 56 56 51 53 53
37 53 60 61 55 51 53 54 51 48 45 43 42 37 36 37 35 34 35 45 49 42 39 39 39 38 40 42 46 48 50 53 54 56 57 55 54 52 49 48 55 46 55
34 41 52 56 53 50 47 47 46 43 40 37 35 34 32 29 25 23 21 24 26 27 29 30 29 31 33 37 39 42 46 49 52 54 53 50 48 46 41 45 48 48 47
27 32 38 40 38 36 35 35 36 38 36 32 32 31 30 27 23 21 24 25 24 24 23 21 21 22 25 28 32 37 42 46 48 48 47 45 43 39 43 44 41 46 48
17 24 29 28 26 26 26 28 33 32 30 29 28 27 28 27 26 24 26 22 20 18 15 14 14 15 18 23 26 30 36 41 43 41 42 40 37 40 43 39 42 48 42
23 23 22 21 22 22 19 22 27 30 31 30 30 31 30 29 27 26 25 21 18 16 15 17 18 20 23 25 27 29 32 37 37 37 37 37 37 40 41 43 45 41 41
22 22 21 22 22 22 19 19 22 24 27 29 28 27 27 26 24 23 23 21 21 21 20 23 27 29 30 29 27 28 28 31 36 37 37 35 35 35 36 35 35 36 38
21 18 14 12 13 14 14 17 21 23 24 23 23 24 24 24 25 26 26 26 26 25 26 29 31 33 32 30 30 30 29 27 33 35 32 31 32 31 32 32 33 34 37
23 22 18 16 12 11 13 15 18 20 22 22 23 24 25 25 25 26 26 26 27 28 29 30 30 30 32 32 31 31 30 28 29 28 28 27 30 29 29 28 27 26 30
16 16 17 16 15 15 15 16 19 21 20 25 28 27 27 26 26 26 26 28 30 31 32 32 32 32 34 34 32 30 30 26 26 26 26 26 28 29 28 26 26 26 28
16 13 10 10 14 18 21 22 24 23 27 28 28 27 28 28 27 28 30 32 33 33 35 34 33 33 29 32 33 30 30 31 28 28 28 27 22 21 23 22 26 28 29
10 7 6 6 3 1 9 19 27 29 28 28 29 29 29 28 28 30 31 32 33 34 35 36 35 32 29 35 35 31 32 34 28 28 26 22 19 23 26 25 25 27 26
3 3 2 4 5 3 2 3 8 17 24 28 27 25 26 27 28 28 30 30 31 32 34 36 36 33 30 30 35 36 33 34 34 28 20 23 25 26 27 28 28 27 26
3 1 1 2 4 5 5 7 10 10 12 16 20 22 23 25 24 25 27 30 33 34 35 35 35 35 34 30 36 37 33 32 28 22 29 31 31 29 29 28 27 27 28
5 3 4 6 6 7 8 9 11 14 17 19 20 21 24 25 26 26 28 33 33 32 33 35 35 35 36 35 38 37 33 34 31 35 35 36 35 32 30 29 28 29 28
Wind_Direction_500mb
180 179 175 174 178 185 194 198 193 194 196 202 191 183 189 194 197 197 198 205 212 220 220 215 215 220 222 227 231 235 233 231 233 239 245 250 247 247 251 253 253 254 259
169 175 177 179 183 177 182 199 196 200 198 203 200 198 193 197 196 206 215 207 209 218 221 219 218 223 226 230 234 232 233 233 227 233 241 258 250 251 255 257 261 260 257
173 170 177 180 180 187 190 196 196 197 201 205 206 211 209 213 212 205 204 216 225 226 216 218 219 226 230 230 234 238 237 239 234 229 223 213 230 270 280 264 260 252 255
195 179 177 180 181 185 194 201 203 200 198 196 203 207 214 207 212 213 209 219 229 222 232 227 215 223 232 222 231 240 241 240 239 236 234 242 256 276 279 285 257 247 248
196 183 177 185 183 184 191 200 204 205 203 199 200 207 208 216 216 217 217 215 220 228 234 228 224 228 222 223 215 233 238 241 242 243 250 263 255 260 270 286 274 254 252
186 181 184 185 181 182 191 195 200 204 203 193 194 198 204 208 202 202 199 211 218 216 226 229 231 232 233 225 222 228 239 238 236 236 232 259 272 275 279 279 278 274 261
191 174 181 181 185 180 186 194 196 196 195 196 196 203 217 222 222 223 219 216 214 217 226 235 226 224 224 222 215 215 230 246 237 236 255 273 271 269 280 282 280 276 271
213 178 176 182 183 186 188 192 194 196 195 197 190 185 180 178 184 193 201 211 223 224 324 263 265 259 260 250 240 248 232 250 254 264 272 266 266 274 280 274 278 267 265
220 192 184 180 182 183 184 192 194 194 191 192 185 184 188 190 198 201 210 229 240 252 252 244 258 242 257 278 284 258 243 235 236 257 267 269 272 270 270 270 263 264 263
216 203 188 183 187 195 199 195 200 194 192 190 197 201 202 224 233 231 241 242 249 265 258 250 245 220 226 227 233 240 244 256 262 270 272 268 272 274 268 261 259 258 257
210 208 191 192 198 202 200 191 198 197 200 203 206 211 229 234 239 239 242 242 246 244 252 255 253 248 249 249 251 254 259 266 267 266 267 272 275 273 265 261 261 258 257
206 198 196 196 193 198 203 200 195 196 204 211 217 225 237 250 256 256 249 248 249 248 252 250 246 247 250 257 260 259 258 258 260 265 268 270 271 269 264 258 261 250 262
134 186 186 182 185 195 201 201 207 215 224 229 237 242 244 250 253 248 242 240 240 236 234 236 241 243 244 246 250 256 260 263 266 268 268 269 266 265 261 256 250 249 247
129 141 160 172 183 190 198 207 214 218 222 225 233 234 235 229 218 223 226 220 218 219 222 229 237 245 251 257 263 267 268 269 270 270 271 269 265 262 256 254 255 253 255
145 149 163 173 184 196 207 216 220 220 220 218 216 216 217 215 215 218 218 214 215 218 223 230 238 250 260 266 271 275 276 275 275 274 272 271 267 261 256 251 252 252 246
152 153 158 170 187 200 205 206 208 209 207 206 206 206 208 210 212 215 219 218 218 224 229 244 257 268 279 290 298 300 292 287 283 280 275 271 263 258 254 251 248 240 248
164 170 173 183 192 201 201 192 189 190 192 196 200 203 206 210 211 212 214 215 221 234 247 258 271 283 290 296 298 311 306 300 293 285 284 277 267 261 258 256 250 244 242
157 164 167 170 174 182 185 188 183 184 191 195 202 205 207 208 209 213 222 228 234 242 256 274 286 289 289 290 286 285 285 283 288 284 276 269 261 256 257 256 259 254 253
153 150 147 163 178 185 189 187 188 192 197 199 203 208 213 217 223 230 235 238 245 255 266 274 278 277 274 280 283 284 275 281 278 277 269 260 256 252 252 253 251 251 248
137 147 158 159 157 182 207 200 199 201 206 211 216 220 225 230 236 241 246 250 254 264 271 275 276 280 284 286 282 281 281 280 276 265 258 255 253 250 253 248 238 238 238
153 162 172 184 193 203 212 229 230 228 225 227 230 233 237 241 243 247 250 254 261 267 268 271 270 269 277 278 279 278 280 277 275 259 254 252 254 254 248 237 231 233 235
123 124 138 167 197 221 232 238 243 241 238 241 246 248 248 247 249 253 257 262 268 271 271 268 269 271 272 278 276 277 283 280 275 263 254 251 249 244 240 239 238 242 245
109 99 87 67 61 224 235 240 244 247 245 248 252 252 248 246 250 254 257 260 265 267 267 266 265 266 267 275 276 272 280 277 267 252 240 234 238 238 240 244 251 254 247
73 54 10 17 10 351 269 258 244 240 240 241 240 235 235 239 246 255 261 264 268 271 271 271 270 266 260 270 280 273 271 269 258 246 235 239 239 241 242 249 252 254 247
92 39 314 283 302 303 275 244 245 238 233 230 230 234 244 248 254 264 270 276 275 272 274 275 272 264 263 273 277 271 264 266 251 234 236 240 243 248 250 250 249 246 244
85 42 356 336 316 296 282 270 257 250 247 246 249 251 252 253 257 264 273 277 274 268 268 271 272 270 268 266 268 262 256 257 234 236 241 245 248 249 250 250 250 249 246
Wind_Speed_850mb
40 53 50 44 47 47 52 58 56 56 56 60 50 60 64 61 56 43 37 32 35 43 38 39 45 43 41 41 38 37 34 31 30 28 23 23 23 24 23 23 26 27 28
56 60 54 50 44 41 42 46 51 60 60 58 53 54 56 54 46 39 37 39 38 35 38 37 42 41 40 38 37 35 33 33 30 29 21 16 17 20 20 22 24 27 27
55 61 60 57 51 47 44 40 38 42 46 56 55 51 49 43 47 52 46 45 44 41 44 42 43 41 41 36 33 33 32 30 29 28 21 10 10 7 11 17 21 26 29
48 70 62 56 51 51 53 50 44 42 42 48 57 54 56 60 60 54 52 49 54 50 50 50 46 44 43 36 26 31 34 31 33 28 30 29 28 15 12 20 25 29 36
49 74 71 61 55 49 52 51 51 48 41 44 47 47 46 44 45 47 50 52 58 64 55 45 36 42 52 39 32 33 35 38 36 35 23 27 33 31 35 43 33 36 40
22 71 71 64 52 48 50 49 49 44 43 42 43 40 41 43 37 29 31 39 46 51 42 38 46 52 46 50 40 36 37 38 37 33 25 31 37 37 37 45 48 51 46
17 59 73 64 55 49 46 49 51 49 45 44 41 38 33 24 29 27 23 26 30 31 20 37 39 35 35 38 33 30 25 26 33 27 26 32 43 56 48 61 58 52 50
34 40 63 65 58 50 46 47 50 50 47 41 37 32 26 19 21 26 19 17 20 17 9 38 49 51 36 34 31 28 26 31 36 40 47 42 50 57 59 58 57 57 54
48 46 50 59 58 50 44 42 43 47 47 47 42 30 32 33 27 21 17 14 15 17 19 26 30 42 11 12 21 37 32 34 38 44 58 53 55 63 62 50 53 54 53
65 46 57 58 52 42 42 38 42 43 42 45 43 39 34 31 34 28 29 28 26 34 32 28 20 29 25 23 36 35 39 51 57 62 70 67 64 59 51 50 51 53 62
78 63 57 50 44 37 46 53 50 46 45 48 41 37 36 38 43 42 45 44 44 39 43 48 57 55 52 55 57 56 58 63 65 67 63 62 64 64 57 58 56 55 60
68 69 66 57 53 49 55 56 44 44 45 45 37 37 35 44 47 52 59 63 65 61 67 65 61 63 63 63 61 59 56 57 58 59 63 63 62 62 56 56 51 53 53
37 53 60 61 55 51 53 54 51 48 45 43 42 37 36 37 35 34 35 45 49 42 39 39 39 38 40 42 46 48 50 53 54 56 57 55 54 52 49 48 55 46 55
34 41 52 56 53 50 47 47 46 43 40 37 35 34 32 29 25 23 21 24 26 27 29 30 29 31 33 37 39 42 46 49 52 54 53 50 48 46 41 45 48 48 47
27 32 38 40 38 36 35 35 36 38 36 32 32 31 30 27 23 21 24 25 24 24 23 21 21 22 25 28 32 37 42 46 48 48 47 45 43 39 43 44 41 46 48
17 24 29 28 26 26 26 28 33 32 30 29 28 27 28 27 26 24 26 22 20 18 15 14 14 15 18 23 26 30 36 41 43 41 42 40 37 40 43 39 42 48 42
23 23 22 21 22 22 19 22 27 30 31 30 30 31 30 29 27 26 25 21 18 16 15 17 18 20 23 25 27 29 32 37 37 37 37 37 37 40 41 43 45 41 41
22 22 21 22 22 22 19 19 22 24 27 29 28 27 27 26 24 23 23 21 21 21 20 23 27 29 30 29 27 28 28 31 36 37 37 35 35 35 36 35 35 36 38
21 18 14 12 13 14 14 17 21 23 24 23 23 24 24 24 25 26 26 26 26 25 26 29 31 33 32 30 30 30 29 27 33 35 32 31 32 31 32 32 33 34 37
23 22 18 16 12 11 13 15 18 20 22 22 23 24 25 25 25 26 26 26 27 28 29 30 30 30 32 32 31 31 30 28 29 28 28 27 30 29 29 28 27 26 30
16 16 17 16 15 15 15 16 19 21 20 25 28 27 27 26 26 26 26 28 30 31 32 32 32 32 34 34 32 30 30 26 26 26 26 26 28 29 28 26 26 26 28
16 13 10 10 14 18 21 22 24 23 27 28 28 27 28 28 27 28 30 32 33 33 35 34 33 33 29 32 33 30 30 31 28 28 28 27 22 21 23 22 26 28 29
10 7 6 6 3 1 9 19 27 29 28 28 29 29 29 28 28 30 31 32 33 34 35 36 35 32 29 35 35 31 32 34 28 28 26 22 19 23 26 25 25 27 26
3 3 2 4 5 3 2 3 8 17 24 28 27 25 26 27 28 28 30 30 31 32 34 36 36 33 30 30 35 36 33 34 34 28 20 23 25 26 27 28 28 27 26
3 1 1 2 4 5 5 7 10 10 12 16 20 22 23 25 24 25 27 30 33 34 35 35 35 35 34 30 36 37 33 32 28 22 29 31 31 29 29 28 27 27 28
5 3 4 6 6 7 8 9 11 14 17 19 20 21 24 25 26 26 28 33 33 32 33 35 35 35 36 35 38 37 33 34 31 35 35 36 35 32 30 29 28 29 28
Wind_Direction_850mb
180 179 175 174 178 185 194 198 193 194 196 202 191 183 189 194 197 197 198 205 212 220 220 215 215 220 222 227 231 235 233 231 233 239 245 250 247 247 251 253 253 254 259
169 175 177 179 183 177 182 199 196 200 198 203 200 198 193 197 196 206 215 207 209 218 221 219 218 223 226 230 234 232 233 233 227 233 241 258 250 251 255 257 261 260 257
173 170 177 180 180 187 190 196 196 197 201 205 206 211 209 213 212 205 204 216 225 226 216 218 219 226 230 230 234 238 237 239 234 229 223 213 230 270 280 264 260 252 255
195 179 177 180 181 185 194 201 203 200 198 196 203 207 214 207 212 213 209 219 229 222 232 227 215 223 232 222 231 240 241 240 239 236 234 242 256 276 279 285 257 247 248
196 183 177 185 183 184 191 200 204 205 203 199 200 207 208 216 216 217 217 215 220 228 234 228 224 228 222 223 215 233 238 241 242 243 250 263 255 260 270 286 274 254 252
186 181 184 185 181 182 191 195 200 204 203 193 194 198 204 208 202 202 199 211 218 216 226 229 231 232 233 225 222 228 239 238 236 236 232 259 272 275 279 279 278 274 261
191 174 181 181 185 180 186 194 196 196 195 196 196 203 217 222 222 223 219 216 214 217 226 235 226 224 224 222 215 215 230 246 237 236 255 273 271 269 280 282 280 276 271
213 178 176 182 183 186 188 192 194 196 195 197 190 185 180 178 184 193 201 211 223 224 324 263 265 259 260 250 240 248 232 250 254 264 272 266 266 274 280 274 278 267 265
220 192 184 180 182 183 184 192 194 194 191 192 185 184 188 190 198 201 210 229 240 252 252 244 258 242 257 278 284 258 243 235 236 257 267 269 272 270 270 270 263 264 263
216 203 188 183 187 195 199 195 200 194 192 190 197 201 202 224 233 231 241 242 249 265 258 250 245 220 226 227 233 240 244 256 262 270 272 268 272 274 268 261 259 258 257
210 208 191 192 198 202 200 191 198 197 200 203 206 211 229 234 239 239 242 242 246 244 252 255 253 248 249 249 251 254 259 266 267 266 267 272 275 273 265 261 261 258 257
206 198 196 196 193 198 203 200 195 196 204 211 217 225 237 250 256 256 249 248 249 248 252 250 246 247 250 257 260 259 258 258 260 265 268 270 271 269 264 258 261 250 262
134 186 186 182 185 195 201 201 207 215 224 229 237 242 244 250 253 248 242 240 240 236 234 236 241 243 244 246 250 256 260 263 266 268 268 269 266 265 261 256 250 249 247
129 141 160 172 183 190 198 207 214 218 222 225 233 234 235 229 218 223 226 220 218 219 222 229 237 245 251 257 263 267 268 269 270 270 271 269 265 262 256 254 255 253 255
145 149 163 173 184 196 207 216 220 220 220 218 216 216 217 215 215 218 218 214 215 218 223 230 238 250 260 266 271 275 276 275 275 274 272 271 267 261 256 251 252 252 246
152 153 158 170 187 200 205 206 208 209 207 206 206 206 208 210 212 215 219 218 218 224 229 244 257 268 279 290 298 300 292 287 283 280 275 271 263 258 254 251 248 240 248
164 170 173 183 192 201 201 192 189 190 192 196 200 203 206 210 211 212 214 215 221 234 247 258 271 283 290 296 298 311 306 300 293 285 284 277 267 261 258 256 250 244 242
157 164 167 170 174 182 185 188 183 184 191 195 202 205 207 208 209 213 222 228 234 242 256 274 286 289 289 290 286 285 285 283 288 284 276 269 261 256 257 256 259 254 253
153 150 147 163 178 185 189 187 188 192 197 199 203 208 213 217 223 230 235 238 245 255 266 274 278 277 274 280 283 284 275 281 278 277 269 260 256 252 252 253 251 251 248
137 147 158 159 157 182 207 200 199 201 206 211 216 220 225 230 236 241 246 250 254 264 271 275 276 280 284 286 282 281 281 280 276 265 258 255 253 250 253 248 238 238 238
153 162 172 184 193 203 212 229 230 228 225 227 230 233 237 241 243 247 250 254 261 267 268 271 270 269 277 278 279 278 280 277 275 259 254 252 254 254 248 237 231 233 235
123 124 138 167 197 221 232 238 243 241 238 241 246 248 248 247 249 253 257 262 268 271 271 268 269 271 272 278 276 277 283 280 275 263 254 251 249 244 240 239 238 242 245
109 99 87 67 61 224 235 240 244 247 245 248 252 252 248 246 250 254 257 260 265 267 267 266 265 266 267 275 276 272 280 277 267 252 240 234 238 238 240 244 251 254 247
73 54 10 17 10 351 269 258 244 240 240 241 240 235 235 239 246 255 261 264 268 271 271 271 270 266 260 270 280 273 271 269 258 246 235 239 239 241 242 249 252 254 247
92 39 314 283 302 303 275 244 245 238 233 230 230 234 244 248 254 264 270 276 275 272 274 275 272 264 263 273 277 271 264 266 251 234 236 240 243 248 250 250 249 246 244
85 42 356 336 316 296 282 270 257 250 247 246 249 251 252 253 257 264 273 277 274 268 268 271 272 270 268 266 268 262 256 257 234 236 241 245 248 249 250 250 250 249 246